FENGYUN 1C DEB

Satellite information

Favourite Embed

Satellite Type and Status

DEBRISIN ORBIT

Key statistics

Satellite FENGYUN 1C DEB at a glance.

Uptime

9715

Days in orbit

Revolutions

≈ 14.1

Per day

Orbit

SSO

Sun Synchronous Orbit

Inclination

98.6

Latest

Satellite identification and parameters

Extended collection of information and parameters for FENGYUN 1C DEB.

Object identification

Identified? True

Debris? True

Object name: FENGYUN 1C DEB

International designator: 1999-025DHP

Object number (NORAD): 33726

Object ID (CCSDS): 33726

Country: PEOPLES REPUBLIC OF CHINA (PRC)

Current information (Y/N): Y

RCS size: SMALL

Orbital parameters

Period: 101.817 minutes

Inclination: 98.6387 deg

SMA: 7222.808 km

Apoapsis: 983.893 km

Periapsis: 705.453 km

RAAN: 111.515 deg

Eccentricy: 0.01927508

Argument of periapsis: 29.4206 deg

Mean anomaly: 358.8001 deg

Mean motion: 14.14306927 rev/day

Mean motion (dot): 0.00000975 rev/day2

B* drag term: 0.00044570328 1/REarth

Two-line elements (TLE)

Creation date: Dec. 13, 2025, 5:47 p.m.

Reference frame: TEME

Reference center: EARTH

Epoch: Dec. 13, 2025, 7:47 a.m. UTC

TLE line 0: 0 FENGYUN 1C DEB

TLE line 1: 1 33726U 99025DHP 25347.32443704 .00000975 00000-0 44570-3 0 9998

TLE line 2: 2 33726 98.6387 111.5150 0192751 29.4206 358.8001 14.14306927919401

Live tracking on map

Real-time ground track for satellite FENGYUN 1C DEB.

In-orbit conjunctions

A list of the most updated potential collisions computed for object FENGYUN 1C DEB.

Target Orbit TCA Probability of collision Miss distance Type
COSMOS 397 DEB LEO 2025-12-11 00:33:10 0.0001013727 352.0 (m) DEBRIS
CZ-6A DEB LEO 2025-01-21 14:50:05 0.0001861375 628.0 (m) DEBRIS
CZ-6A DEB SSO 2024-11-24 04:46:09 0.0001018134 303.0 (m) DEBRIS

Associated space launch

Chinese polar orbiting meteorological satellite

FENGYUN 1C DEB was lifted into orbit during the mission ‘Long March 4B | Feng Yun 1C’, on board a Long March 4B space rocket.

The launch took place on May 10, 1999, 1:33 a.m. from Launch Complex 7.

For more information about the launch, click the button.

Launch to space Long March 4B | Feng Yun 1C
Long March 4B | Feng Yun 1C

Agency: N/A

Status: Launch Successful

Launch date: May 10, 1999, 1:33 a.m. UTC

Rocket: Long March 4B

Launch pad: Launch Complex 7

Location: Taiyuan Satellite Launch Center, People's Republic of China

...

Latest news about this satellite

There are no fresh news available about this satellite. Check back as we update our databases every day.


Newsletter sign-up

Weekly statistics, charts and insights to help you stay on top of the space industry.